Altoona, PA

6:36 PM EST on December 14, 2017 (GMT -0500)
Altoona-Blair County

Weather History for KAOO - February, 2013

Change the Weather History Date:

Friday, February 8, 2013

  Actual Average Record
Temperature  
Mean Temperature 29 °F 28 °F  
Max Temperature 34 °F 36 °F 58 °F (2017)
Min Temperature 23 °F 20 °F -2 °F (1967)
Degree Days  
Heating Degree Days 36 37  
Month to date heating degree days 298  
Since 1 July heating degree days 3851  
Cooling Degree Days 0 0  
Month to date cooling degree days 0  
Year to date cooling degree days 0  
Moisture  
Dew Point 28 °F    
Average Humidity 86    
Maximum Humidity 96    
Minimum Humidity 74    
Precipitation  
Precipitation 0.08 in 0.06 in 1.12 in (1994)
Month to date precipitation 0.57  
Year to date precipitation 2.74  
Sea Level Pressure  
Sea Level Pressure 29.88 in    
Wind  
Wind Speed 5 mph (West)    
Max Wind Speed 28 mph    
Max Gust Speed 37 mph    
Visibility 4 miles    
Events Fog , Snow    
T = Trace of Precipitation, MM = Missing Value Source: NWS Daily Summary

Daily Weather History Graph

Daily Weather History Graph

Search for Another Location

Airport or City:

Trip Planner

Search our weather history database for the weather conditions in past years. The results will help you decide how hot, cold, wet, or windy it might be!

Date:

Astronomy

Feb. 08, 2013 Rise Set
Actual Time 7:14 AM EST 5:40 PM EST
Civil Twilight 6:46 AM EST 6:08 PM EST
Nautical Twilight 6:14 AM EST 6:41 PM EST
Astronomical Twilight 5:42 AM EST 7:12 PM EST
Moon 5:42 AM EST (2/8) 4:11 PM EST (2/8)
Length of Visible Light 11h 22m
Length of Day
10h 25m
Waning Crescent, 3% of the Moon is Illuminated
Feb 8
Waning Crescent
Feb 10
New
Feb 17
First Quarter
Feb 25
Full
Mar 4
Last Quarter

Hourly Weather History & Observations

Time (EST) Temp. Windchill Dew Point Humidity Pressure Visibility Wind Dir Wind Speed Gust Speed Precip Events Conditions
12:53 AM 30.9 °F 24.3 °F 24.1 °F 76% 30.14 in 10.0 mi SSE 6.9 mph - N/A   Overcast
1:53 AM 30.9 °F 26.2 °F 25.0 °F 79% 30.10 in 10.0 mi SSE 4.6 mph - N/A   Overcast
2:06 AM 30.2 °F 25.4 °F 24.8 °F 80% 30.05 in 10.0 mi SSE 4.6 mph - N/A   Overcast
2:53 AM 30.9 °F - 26.1 °F 82% 30.07 in 10.0 mi Calm Calm - N/A   Overcast
3:53 AM 30.9 °F 23.5 °F 26.1 °F 82% 30.06 in 9.0 mi SE 8.1 mph - N/A   Overcast
4:53 AM 30.0 °F - 27.0 °F 88% 30.04 in 6.0 mi Calm Calm - N/A   Overcast
5:53 AM 30.9 °F - 28.0 °F 89% 30.02 in 6.0 mi Calm Calm - N/A   Overcast
6:53 AM 30.9 °F - 28.0 °F 89% 30.00 in 5.0 mi Calm Calm - N/A   Overcast
7:53 AM 30.9 °F 26.2 °F 27.0 °F 85% 29.98 in 6.0 mi ESE 4.6 mph - N/A   Overcast
8:53 AM 30.9 °F 26.2 °F 28.0 °F 89% 29.96 in 7.0 mi ESE 4.6 mph - N/A   Overcast
9:20 AM 30.2 °F 24.3 °F 28.4 °F 93% 29.90 in 7.0 mi ESE 5.8 mph - N/A   Overcast
9:30 AM 32.0 °F 28.7 °F 28.4 °F 87% 29.89 in 7.0 mi SE 3.5 mph - N/A   Overcast
9:53 AM 32.0 °F 26.4 °F 28.0 °F 85% 29.93 in 6.0 mi East 5.8 mph - N/A   Overcast
10:53 AM 33.1 °F - 28.9 °F 85% 29.90 in 9.0 mi Calm Calm - N/A   Overcast
11:53 AM 34.0 °F 29.8 °F 30.9 °F 89% 29.84 in 9.0 mi ESE 4.6 mph - N/A   Overcast
12:31 PM 33.8 °F 30.8 °F 30.2 °F 87% 29.80 in 1.8 mi SSE 3.5 mph - 0.00 in Snow Light Snow
12:53 PM 33.1 °F - 30.9 °F 92% 29.83 in 1.2 mi Calm Calm - 0.01 in Snow Light Snow
1:05 PM 33.8 °F - 30.2 °F 87% 29.79 in 1.5 mi Calm Calm - 0.00 in Snow Light Snow
1:32 PM 33.8 °F - 32.0 °F 93% 29.78 in 0.8 mi Calm Calm - 0.02 in Snow Light Snow
1:37 PM 33.8 °F - 32.0 °F 93% 29.77 in 0.5 mi Calm Calm - 0.02 in Fog , Snow Snow
1:40 PM 33.8 °F - 32.0 °F 93% 29.77 in 0.8 mi Calm Calm - 0.02 in Snow Light Snow
1:51 PM 33.8 °F - 30.2 °F 87% 29.77 in 0.5 mi Calm Calm - 0.03 in Fog , Snow Snow
1:53 PM 33.1 °F - 30.9 °F 92% 29.81 in 0.5 mi Calm Calm - 0.03 in Fog , Snow Snow
2:07 PM 33.8 °F - 30.2 °F 87% 29.77 in 0.5 mi Calm Calm - 0.01 in Fog , Snow Snow
2:17 PM 33.8 °F 30.8 °F 30.2 °F 87% 29.77 in 0.8 mi West 3.5 mph - 0.02 in Snow Light Snow
2:30 PM 33.8 °F - 32.0 °F 93% 29.76 in 1.0 mi Calm Calm - 0.02 in Snow Light Snow
2:39 PM 33.8 °F - 32.0 °F 93% 29.76 in 1.2 mi Calm Calm - 0.02 in Snow Light Snow
2:46 PM 33.8 °F - 32.0 °F 93% 29.75 in 2.0 mi Calm Calm - 0.02 in   Overcast
2:53 PM 33.1 °F - 32.0 °F 96% 29.80 in 2.5 mi Calm Calm - 0.02 in   Overcast
3:33 PM 33.8 °F - 30.2 °F 87% 29.75 in 2.0 mi Calm Calm - N/A   Overcast
3:36 PM 33.8 °F - 30.2 °F 87% 29.75 in 1.8 mi Calm Calm - 0.00 in Snow Light Snow
3:53 PM 33.1 °F - 32.0 °F 96% 29.80 in 0.8 mi Calm Calm - 0.00 in Snow Light Snow
4:04 PM 33.8 °F 29.6 °F 30.2 °F 87% 29.77 in 0.2 mi NW 4.6 mph - 0.01 in Fog , Snow Heavy Snow
4:19 PM 33.8 °F 27.0 °F 30.2 °F 87% 29.77 in 1.0 mi NW 8.1 mph - 0.02 in Snow Light Snow
4:23 PM 33.8 °F 24.3 °F 30.2 °F 87% 29.77 in 3.0 mi WNW 13.8 mph 24.2 mph 0.02 in Snow Light Snow
4:30 PM 33.8 °F 22.5 °F 30.2 °F 87% 29.77 in 6.0 mi WNW 19.6 mph 23.0 mph 0.02 in Snow Light Snow
4:42 PM 33.8 °F 24.3 °F 28.4 °F 81% 29.77 in 7.0 mi WNW 13.8 mph 26.5 mph 0.02 in Snow Light Snow
4:53 PM 34.0 °F 22.4 °F 28.0 °F 79% 29.83 in 8.0 mi WNW 20.7 mph 28.8 mph 0.02 in Snow Light Snow
5:53 PM 32.0 °F 20.8 °F 25.0 °F 75% 29.85 in 7.0 mi WNW 17.3 mph 29.9 mph 0.00 in Snow Light Snow
6:53 PM 28.9 °F 14.0 °F 21.9 °F 75% 29.89 in 8.0 mi WNW 27.6 mph 33.4 mph 0.00 in Snow Light Snow
7:53 PM 28.0 °F 14.6 °F 21.0 °F 75% 29.92 in 10.0 mi WNW 20.7 mph 36.8 mph 0.00 in   Overcast
8:53 PM 26.1 °F 10.4 °F 19.0 °F 75% 29.94 in 4.0 mi WNW 26.5 mph 34.5 mph 0.00 in Snow Light Snow
9:53 PM 24.1 °F 7.7 °F 17.1 °F 75% 29.99 in 6.0 mi NW 26.5 mph 34.5 mph 0.00 in Snow Light Snow
10:53 PM 24.1 °F 9.0 °F 17.1 °F 75% 30.01 in 4.0 mi WNW 21.9 mph 34.5 mph 0.00 in Snow Light Snow
11:53 PM 23.0 °F 7.6 °F 16.0 °F 74% 30.01 in 3.0 mi NW 21.9 mph 32.2 mph 0.00 in Snow Light Snow